When you browse on this site, cookies collect data to enhance your experience and personalize the content and advertising you see.
Visit our Privacy Policy to learn more. By continuing to use the site, you agree to this use of cookies and data.
  • In Latvia
  • List of Countries
  • For 7 days
  • Water Temperature
  • Satellite Maps
  • Weather Map
  • Weather Widgets
  • user-avatar
    Login

    Hourly Weather Lubango

    Today, 22 May, Wednesday

    Time Temperature Precipitation Wind Pressure Humidity
    00:00 +15°C° 0 mm 1 mps 608 mmHg 41%
    01:00 +14°C° 0 mm 1 mps 608 mmHg 41%
    02:00 +14°C° 0 mm 1 mps 607 mmHg 41%
    03:00 +14°C° 0 mm 1 mps 607 mmHg 41%
    04:00 +14°C° 0 mm 1 mps 607 mmHg 41%
    05:00 +14°C° 0 mm 1 mps 607 mmHg 41%
    06:00 +14°C° 0 mm 1 mps 608 mmHg 41%
    07:00 +16°C° 0 mm 1 mps 609 mmHg 40%
    08:00 +20°C° 0 mm 1 mps 610 mmHg 34%
    09:00 +23°C° 0 mm 2 mps 611 mmHg 28%
    10:00 +25°C° 0 mm 2 mps 612 mmHg 23%
    11:00 +26°C° 0 mm 2 mps 612 mmHg 21%
    12:00 +27°C° 0 mm 3 mps 612 mmHg 20%
    13:00 +28°C° 0 mm 3 mps 612 mmHg 19%
    14:00 +27°C° 0 mm 3 mps 611 mmHg 21%
    15:00 +26°C° 0 mm 3 mps 610 mmHg 22%
    16:00 +26°C° 0 mm 3 mps 610 mmHg 24%
    17:00 +22°C° 0 mm 3 mps 609 mmHg 33%
    18:00 +19°C° 0 mm 2 mps 608 mmHg 42%
    19:00 +15°C° 0 mm 2 mps 607 mmHg 51%
    20:00 +15°C° 0 mm 1 mps 608 mmHg 53%
    21:00 +15°C° 0 mm 1 mps 608 mmHg 54%
    22:00 +14°C° 0 mm 1 mps 608 mmHg 56%
    23:00 +14°C° 0 mm 1 mps 608 mmHg 55%

    Tomorrow, 23 May, Thursday

    Time Temperature Precipitation Wind Pressure Humidity
    00:00 +14°C° 0 mm 1 mps 608 mmHg 54%
    01:00 +14°C° 0 mm 1 mps 608 mmHg 53%
    02:00 +14°C° 0 mm 1 mps 608 mmHg 52%
    03:00 +13°C° 0 mm 1 mps 607 mmHg 51%
    04:00 +13°C° 0 mm 1 mps 607 mmHg 50%
    05:00 +14°C° 0 mm 1 mps 607 mmHg 49%
    06:00 +14°C° 0 mm 1 mps 608 mmHg 49%
    07:00 +14°C° 0 mm 1 mps 608 mmHg 48%
    08:00 +19°C° 0 mm 1 mps 610 mmHg 41%
    09:00 +22°C° 0 mm 1 mps 611 mmHg 35%
    10:00 +25°C° 0 mm 1 mps 612 mmHg 28%
    11:00 +26°C° 0 mm 1 mps 612 mmHg 27%
    12:00 +26°C° 0 mm 2 mps 612 mmHg 26%
    13:00 +27°C° 0 mm 2 mps 611 mmHg 25%
    14:00 +26°C° 0 mm 2 mps 611 mmHg 26%
    15:00 +26°C° 0 mm 1 mps 610 mmHg 27%
    16:00 +26°C° 0 mm 1 mps 610 mmHg 28%
    17:00 +23°C° 0 mm 1 mps 609 mmHg 32%
    18:00 +21°C° 0 mm 1 mps 608 mmHg 37%
    19:00 +18°C° 0 mm 1 mps 608 mmHg 42%
    20:00 +16°C° 0 mm 1 mps 608 mmHg 44%
    21:00 +16°C° 0 mm 1 mps 608 mmHg 45%
    22:00 +15°C° 0 mm 1 mps 608 mmHg 47%
    23:00 +15°C° 0 mm 1 mps 608 mmHg 47%

    Day after tomorrow, 24 May, Friday

    Time Temperature Precipitation Wind Pressure Humidity
    00:00 +15°C° 0 mm 1 mps 608 mmHg 48%
    01:00 +15°C° 0 mm 1 mps 608 mmHg 48%
    02:00 +15°C° 0 mm 1 mps 608 mmHg 48%
    03:00 +15°C° 0 mm 1 mps 608 mmHg 48%
    04:00 +14°C° 0 mm 1 mps 607 mmHg 49%
    05:00 +15°C° 0 mm 1 mps 608 mmHg 48%
    06:00 +15°C° 0 mm 1 mps 608 mmHg 48%
    07:00 +15°C° 0 mm 1 mps 608 mmHg 47%
    08:00 +20°C° 0 mm 1 mps 610 mmHg 40%
    09:00 +23°C° 0 mm 1 mps 612 mmHg 33%
    10:00 +26°C° 0 mm 1 mps 613 mmHg 26%
    11:00 +27°C° 0 mm 2 mps 613 mmHg 25%
    12:00 +28°C° 0 mm 2 mps 612 mmHg 23%
    13:00 +29°C° 0 mm 2 mps 612 mmHg 21%
    14:00 +27°C° 0 mm 1 mps 611 mmHg 24%
    15:00 +26°C° 0 mm 1 mps 610 mmHg 26%
    16:00 +25°C° 0 mm 1 mps 610 mmHg 28%
    17:00 +24°C° 0 mm 1 mps 609 mmHg 31%
    18:00 +22°C° 0 mm 1 mps 609 mmHg 33%
    19:00 +20°C° 0 mm 1 mps 609 mmHg 36%
    20:00 +20°C° 0 mm 1 mps 609 mmHg 38%
    21:00 +19°C° 0 mm 1 mps 609 mmHg 40%
    22:00 +17°C° 0 mm 2 mps 610 mmHg 42%
    23:00 +18°C° 0 mm 1 mps 609 mmHg 42%

    25 May, Saturday

    Time Temperature Precipitation Wind Pressure Humidity
    00:00 +18°C° 0 mm 1 mps 609 mmHg 42%
    01:00 +18°C° 0 mm 1 mps 609 mmHg 42%
    02:00 +18°C° 0 mm 1 mps 609 mmHg 41%
    03:00 +18°C° 0 mm 1 mps 609 mmHg 40%
    04:00 +18°C° 0 mm 1 mps 609 mmHg 40%
    05:00 +18°C° 0 mm 1 mps 609 mmHg 40%
    06:00 +18°C° 0 mm 1 mps 609 mmHg 40%
    07:00 +18°C° 0 mm 1 mps 610 mmHg 41%
    08:00 +20°C° 0 mm 2 mps 611 mmHg 36%
    09:00 +22°C° 0 mm 3 mps 612 mmHg 32%
    10:00 +25°C° 0 mm 4 mps 612 mmHg 27%
    11:00 +26°C° 0 mm 4 mps 612 mmHg 26%
    12:00 +27°C° 0 mm 4 mps 612 mmHg 24%
    13:00 +28°C° 0 mm 4 mps 611 mmHg 23%
    14:00 +27°C° 0 mm 3 mps 611 mmHg 24%
    15:00 +27°C° 0 mm 2 mps 610 mmHg 25%
    16:00 +26°C° 0 mm 2 mps 610 mmHg 26%
    17:00 +24°C° 0 mm 2 mps 609 mmHg 28%
    18:00 +23°C° 0 mm 1 mps 609 mmHg 31%
    19:00 +21°C° 0 mm 1 mps 609 mmHg 34%
    20:00 +20°C° 0 mm 1 mps 609 mmHg 35%
    21:00 +20°C° 0 mm 1 mps 609 mmHg 37%
    22:00 +19°C° 0 mm 1 mps 609 mmHg 38%
    23:00 +19°C° 0 mm 1 mps 609 mmHg 38%

    26 May, Sunday

    Time Temperature Precipitation Wind Pressure Humidity
    00:00 +19°C° 0 mm 1 mps 609 mmHg 38%
    01:00 +19°C° 0 mm 1 mps 609 mmHg 38%
    02:00 +18°C° 0 mm 1 mps 609 mmHg 39%
    03:00 +18°C° 0 mm 1 mps 609 mmHg 39%
    04:00 +18°C° 0 mm 1 mps 608 mmHg 39%
    05:00 +16°C° 0 mm 1 mps 609 mmHg 40%
    06:00 +16°C° 0 mm 1 mps 609 mmHg 41%
    07:00 +15°C° 0 mm 2 mps 609 mmHg 42%
    08:00 +18°C° 0 mm 2 mps 610 mmHg 36%
    09:00 +21°C° 0 mm 3 mps 611 mmHg 30%
    10:00 +25°C° 0 mm 4 mps 612 mmHg 24%
    11:00 +26°C° 0 mm 3 mps 612 mmHg 23%
    12:00 +27°C° 0 mm 3 mps 612 mmHg 22%
    13:00 +28°C° 0 mm 2 mps 611 mmHg 20%
    14:00 +28°C° 0 mm 2 mps 611 mmHg 22%
    15:00 +27°C° 0 mm 2 mps 610 mmHg 23%
    16:00 +27°C° 0 mm 1 mps 610 mmHg 24%
    17:00 +25°C° 0 mm 1 mps 609 mmHg 28%
    18:00 +22°C° 0 mm 1 mps 609 mmHg 31%
    19:00 +20°C° 0 mm 1 mps 609 mmHg 35%
    20:00 +20°C° 0 mm 1 mps 609 mmHg 36%
    21:00 +19°C° 0 mm 1 mps 609 mmHg 37%
    22:00 +19°C° 0 mm 1 mps 609 mmHg 39%
    23:00 +18°C° 0 mm 1 mps 609 mmHg 39%

    27 May, Monday

    Time Temperature Precipitation Wind Pressure Humidity
    00:00 +18°C° 0 mm 1 mps 609 mmHg 39%
    01:00 +18°C° 0 mm 1 mps 609 mmHg 39%
    02:00 +16°C° 0 mm 2 mps 608 mmHg 38%
    03:00 +15°C° 0 mm 2 mps 608 mmHg 38%
    04:00 +15°C° 0 mm 2 mps 607 mmHg 38%
    05:00 +15°C° 0 mm 2 mps 608 mmHg 38%
    06:00 +15°C° 0 mm 2 mps 608 mmHg 39%
    07:00 +15°C° 0 mm 2 mps 609 mmHg 40%
    08:00 +18°C° 0 mm 3 mps 610 mmHg 35%
    09:00 +21°C° 0 mm 4 mps 611 mmHg 30%
    10:00 +25°C° 0 mm 5 mps 612 mmHg 25%
    11:00 +26°C° 0 mm 4 mps 612 mmHg 24%
    12:00 +27°C° 0 mm 3 mps 611 mmHg 23%
    13:00 +28°C° 0 mm 3 mps 611 mmHg 21%
    14:00 +27°C° 0 mm 2 mps 610 mmHg 22%
    15:00 +27°C° 0 mm 2 mps 610 mmHg 23%
    16:00 +26°C° 0 mm 2 mps 609 mmHg 24%
    17:00 +24°C° 0 mm 1 mps 609 mmHg 26%
    18:00 +22°C° 0 mm 1 mps 609 mmHg 29%
    19:00 +20°C° 0 mm 1 mps 608 mmHg 32%
    20:00 +19°C° 0 mm 1 mps 608 mmHg 33%
    21:00 +18°C° 0 mm 1 mps 608 mmHg 35%
    22:00 +16°C° 0 mm 1 mps 608 mmHg 36%
    23:00 +16°C° 0 mm 1 mps 608 mmHg 36%
    Show more